FM-6

Last updated on Mon Nov 03 2025 00:02:57 GMT+0000 (Coordinated Universal Time)

1 39360U 13058A 25306.51652372 -.00000005 00000+0 00000+0 0 9999 2 39360 0.0256 135.7437 0002778 33.3119 302.7983 1.00272315 43808
UTC large
Height (km)
Speed (km/s)
/
Latitude / Longitude
Inclination (degrees)
Orbital Period (minutes)
Azimuth
Elevation
Range (km)
Doppler Factor

Next 0 passes for location: London (51.5072 / 0.1276)

Sorry there are no passes over London.